User: anonymous   Login
Location: Oshawa
(43.9000°N, 78.8670°W)
Time: 08:04:41
(UTC-04:00)
Language:

Envisat - Orbit

View from above orbital plane
View from above orbital plane
View from above satellite
View from above satellite

Ground track
Ground track

The orbit data is extracted from the following two-line orbital elements,

1 27386U 02009A   15117.07704753  .00000156  00000-0  65927-4 0  9990
2 27386 098.3381 179.0246 0001030 071.4254 288.7051 14.37808583688680
Epoch (UTC): 27 April 2015 01:50:56
Eccentricity: 0.0001030
inclination: 98.3381°
perigee height: 765 km
apogee height: 766 km
right ascension of ascending node: 179.0246°
argument of perigee: 71.4254°
revolutions per day: 14.37808583
mean anomaly at epoch: 288.7051°
orbit number at epoch: 68868

The dashed part of the orbit path shows where the satellite is in the earth's shadow,  

DLR